{"data":{"norad_id":61953,"intl_designator":"2024-209Q","name":"STARLINK-32585","alt_names":[],"object_type":"PAYLOAD","status":"ACTIVE","operator":null,"country":"US","launch_date":"2024-11-14","launch_site_code":"AFWTR","launch_vehicle":null,"mission":null,"orbit_class":"UNKNOWN","rcs_meters":null,"size_class":null,"mass_kg":null,"dimensions":null,"purposes":["comms"],"wikipedia_slug":null,"has_3d_model":false,"image_url":null,"decayed_at":null,"tle_current":{"epoch":"2026-05-25T03:21:09.637632Z","epoch_age_seconds":63329,"freshness":"FRESH","line1":"1 61953U 24209Q   26145.13969488  .00037734  00000+0  87167-3 0  9992","line2":"2 61953  53.1579 145.0337 0001089  66.0057 294.1063 15.42181317 86632","mean_motion":15.42181317,"eccentricity":0.0001089,"inclination_deg":53.1579,"raan_deg":145.0337,"arg_perigee_deg":66.0057,"mean_anomaly_deg":294.1063,"bstar":0.00087167,"rev_number":8663,"period_min":93.374234542098,"perigee_km":438.93036677986,"apogee_km":440.41528576002,"semimajor_km":6817.8098262699,"source":"CELESTRAK","updated_at":"2026-05-25T13:38:19.489122Z"}}}